Regional Weather Roundup
Issued by NWS

Home | Current Version | Previous Version | Graphics & Text | Print | Product List | Glossary On
Versions: 1 2 3 4 5 6 7 8 9 10 11 12 13 14 15 16 17 18 19 20 21 22 23 24 25 26 27 28 29 30 31 32 33 34 35 36 37 38 39 40 41 42 43 44 45 46 47 48 49 50
000
ASUS43 KDMX 051707
RWRIA

WEATHER ROUNDUP FOR IOWA
NATIONAL WEATHER SERVICE DES MOINES IA
1200 PM CDT TUE MAY 05 2015

NOTE: "FAIR" INDICATES FEW OR NO CLOUDS BELOW 12,000 FEET WITH NO
SIGNIFICANT WEATHER AND/OR OBSTRUCTIONS TO VISIBILITY.

* - THESE STATIONS ARE NOT NWS STATIONS...THUS NOT UNDER NWS
QUALITY CONTROL.  THEY ALSO DO NOT REPORT WEATHER SUCH
AS PRECIPITATION OR FOG.

IAZ001>003-012>014-020>022-031>034-043>046-051800-
   NORTHWEST IOWA

CITY           SKY/WX    TMP DP  RH WIND       PRES   REMARKS
CARROLL *      CLOUDY    68  63  83 S10       30.10S
CHEROKEE *     CLOUDY    59  59 100 SE6       30.10F FOG
DENISON *      PTSUNNY   68  66  94 S10       30.08S
LE MARS *      CLOUDY    61  55  82 SE9       30.10S
ORANGE CITY *  CLOUDY    61  54  77 SE8       30.10S
SHELDON *      CLOUDY    63  59  88 E13G21    30.09S
SIOUX CITY     CLOUDY    61  57  87 SE7       30.09S
SPENCER        CLOUDY    59  57  93 SE14      30.12R FOG
STORM LAKE *   FOG       59  59 100 SE9       30.12S VSB 1
$$

IAZ055>058-069>071-079>083-090>094-051800-
   SOUTHWEST IOWA

CITY           SKY/WX    TMP DP  RH WIND       PRES   REMARKS
ATLANTIC *     CLOUDY    66  63  88 SE8       30.11S
AUDUBON *      SUNNY     70  63  78 S13       30.12S
CLARINDA *     CLOUDY    72  63  73 S10       30.12S
COUNCIL BLFS * PTSUNNY   68  66  94 SE12      30.10S
CRESTON *      MOSUNNY   72  64  78 S12G17    30.13S
HARLAN  *      MOSUNNY   70  66  88 S12       30.13S
LAMONI         PTSUNNY   72  62  71 S8        30.13S
RED OAK *      MOSUNNY   72  64  78 SE12      30.10F
SHENANDOAH *   CLOUDY    72  64  78 SE13      30.11R
$$

IAZ047>049-059>061-072>074-084-051800-
   CENTRAL IOWA

CITY           SKY/WX    TMP DP  RH WIND       PRES   REMARKS
AMES           CLOUDY    69  61  75 SW10      30.12R
ANKENY *       CLOUDY    70  63  78 S6        30.12S
CHARITON *     MOSUNNY   73  63  68 SE9       30.13F
DES MOINES     CLOUDY    73  61  65 S12       30.12R
GRINNELL*      CLOUDY    70  63  78 S10       30.14S
KNOXVILLE *    MOSUNNY   72  61  68 S7        30.12S
MARSHALLTOWN   CLOUDY    66  62  87 E7        30.13S
PELLA *        PTSUNNY   73  66  78 S8        30.14S
PERRY *        CLOUDY    66  63  88 S13       30.11F
$$

IAZ004>006-015-016-023>025-035-036-051800-
   NORTH CENTRAL IOWA

CITY           SKY/WX    TMP DP  RH WIND       PRES   REMARKS
ALGONA *       CLOUDY    57  57 100 E15       30.14S FOG
CLARION *      FOG       57  57 100 E15       30.14S VSB 1/2
ESTHERVILLE    CLOUDY    59  57  93 E17       30.12S FOG
FORT DODGE *   CLOUDY    61  57  88 E8        30.13S VSB 1/2
MASON CITY     CLOUDY    54  53  97 E13       30.18S FOG
FOREST CITY *  CLOUDY    52  52 100 E7        30.16F FOG
IOWA FALLS *   FOG       59  57  94 E13       30.15S VSB 3/4
$$

IAZ007>011-017>019-026>030-037>042-050>054-066-051800-
   NORTHEAST IOWA

CITY           SKY/WX    TMP DP  RH WIND       PRES   REMARKS
CEDAR RAPIDS   CLOUDY    62  62 100 E12       30.16S FOG
CHARLES CITY * CLOUDY    54  54 100 E15       30.19S
CLINTON *      PTSUNNY   57  55  94 E12       30.22S
DECORAH *      CLOUDY    52  50  93 E13G23    30.21S
DUBUQUE        LGT RAIN  53  51  93 NE10      30.21S FOG
MONTICELLO *   CLOUDY    55  55 100 E10       30.20R
OELWEIN *      CLOUDY    54  52  94 E16       30.19S
WATERLOO       CLOUDY    55  54  96 E16       30.17R
$$

IAZ064-065-067-068-078-051800-
   EAST CENTRAL IOWA

CITY           SKY/WX    TMP DP  RH WIND       PRES   REMARKS
DAVENPORT      CLOUDY    60  57  89 NE9       30.19S FOG
IOWA CITY      CLOUDY    68  64  87 E9        30.17S FOG
MT. PLEASANT * PTSUNNY   73  64  73 S8        30.15S
MUSCATINE *    PTSUNNY   72  63  73 CALM      30.16S
QUAD CITIES    CLOUDY    66  60  81 E6        30.17S HAZE
$$

IAZ062-063-075>077-085>089-095>099-051800-
   SOUTHEAST IOWA

CITY           SKY/WX    TMP DP  RH WIND       PRES   REMARKS
BURLINGTON     CLOUDY    73  65  75 CALM      30.14F
FAIRFIELD *    SUNNY     75  61  60 S7        30.14S
FORT MADISON * MOSUNNY   73  64  73 S5        30.15F
KEOKUK *       SUNNY     75  66  73 SW5       30.14S
OSKALOOSA *    CLOUDY    73  61  64 S8        30.14S
CENTERVILLE *  SUNNY     73  63  68 S12       30.15F
OTTUMWA        CLOUDY    74  61  63 S6        30.12S
WASHINGTON *   SUNNY     73  73 100 S7        30.14F
$$

ABBREVIATIONS USED IN REMARKS
   TC - TEMPERATURES IN CELSIUS
  WCI - WIND CHILL INDEX
   HX - HEAT INDEX
  VSB - VISIBILITY
$$




USA.gov is the U.S. government's official web portal to all federal, state and local government web resources and services.